Location: Affaltern
(48.4867°N, 10.7378°E)
Time: 06:32:01
(UTC+00:00)

Daily predictions for brighter satellites

Satellite Brightness Start Highest point End
(mag) Time Altitude Azimuth Time Altitude Azimuth Time Altitude Azimuth
NOSS 2-1 (C) 4.3 19:53:12 10° NNW 19:57:24 54° NE 20:03:14 10° ESE
Ariane Rocket 3.1 19:55:00 10° SSE 20:00:07 88° WSW 20:05:15 10° NNW
USA 267 4.2 19:55:16 10° ENE 20:00:22 24° SE 20:05:25 10° S
Cosmos 1954 Rocket 4.2 19:56:22 10° NNW 20:01:38 63° ENE 20:06:49 10° SE
PSLV R/B 4.3 20:02:23 10° N 20:06:31 72° WNW 20:10:38 10° SSW
Cosmos 1980 Rocket 4.4 20:04:07 10° N 20:07:42 17° NE 20:11:16 10° ENE
NOSS 2-1 (D) 4.2 20:03:29 10° NW 20:07:47 63° NE 20:13:48 10° SE
S3M 4.3 20:02:55 10° SSW 20:09:05 73° W 20:15:15 10° N
Cosmos 1697 Rocket 4.2 20:06:17 10° N 20:10:57 26° NE 20:15:34 10° E
Meteor 2-10 Rocket 4.2 20:06:36 10° NNW 20:11:30 51° W 20:16:19 10° S
SPOT 5 3.1 20:07:41 10° SE 20:11:56 47° ENE 20:16:06 10° N
H-2A R/B 2.9 20:08:48 10° N 20:13:06 57° WNW 20:17:28 10° SSW
Tiangong 2.6 20:13:22 10° WSW 20:15:55 22° S 20:18:23 10° SE
Cosmos 1975 Rocket 3.2 20:11:55 10° S 20:16:23 87° WNW 20:20:49 10° N
CARTOSAT-1 3.6 20:13:33 10° SSE 20:17:53 82° WSW 20:22:13 10° NNW
IRAS Rocket 4.3 20:14:10 10° NNE 20:19:48 79° ESE 20:25:22 10° SSW
Cosmos 1656 4.2 20:15:53 10° NNW 20:21:11 49° NE 20:26:30 10° SE
Cosmos 2084 3.2 20:17:37 10° SSW 20:21:24 58° SE 20:25:13 10° NE
USA 276 2.4 20:26:34 10° SW 20:29:23 39° SSE 20:32:14 10° E
Spot 2 Rocket 3.6 20:25:56 10° SSE 20:31:00 76° ENE 20:36:07 10° NNW
ATLAS 2AS CENTAUR R/B 2.8 20:24:29 10° NW 20:31:42 83° SW 20:37:59 12° SE
Cosmos 1544 Rocket 3.5 20:29:06 10° N 20:33:27 89° ENE 20:37:47 10° S
Meteor 1-24 Rocket 3.7 20:28:35 10° SSW 20:33:54 86° W 20:39:22 10° N
USA 234 3.9 20:29:49 10° E 20:36:11 55° NNE 20:42:32 10° NW
Lacrosse 5 1.9 20:31:15 10° NW 20:36:22 77° SW 20:40:57 13° SE
Cosmos 1371 Rocket 4.3 20:31:10 10° SSW 20:36:23 76° WNW 20:41:43 10° NNE
Cosmos 1452 Rocket 4.1 20:32:19 10° SSE 20:37:06 37° ESE 20:41:55 10° NE
X-37B 1.1 20:36:47 10° SW 20:39:21 32° SSE 20:41:44 11° ESE
Cosmos 1833 Rocket 3.8 20:36:06 11° SSE 20:40:19 26° ESE 20:44:52 10° NE
Terra 1.9 20:38:02 12° SSE 20:42:21 66° ENE 20:47:06 10° N
FALCON 9 DEB 4.4 20:42:30 10° W 20:45:37 41° N 20:48:45 10° ENE
Cosmos 2184 Rocket 4.1 20:40:11 10° N 20:46:20 65° ENE 20:51:49 13° SSE
Resurs 01 Rocket 3.8 20:45:51 10° SW 20:49:17 22° W 20:52:45 10° NW
Cosmos 724 4.2 20:46:35 10° SSW 20:52:21 69° ESE 20:58:07 10° NE
Helios 1A Rocket 3.2 20:51:31 12° S 20:55:14 66° WSW 20:59:19 10° NNW
CZ-4B R/B 3.9 20:53:14 10° NNW 20:55:18 18° WNW 20:57:22 10° WSW
Lacrosse 5 rocket 2.5 20:55:58 10° WNW 20:59:19 28° SW 21:01:56 15° S
Cosmos 1271 Rocket 3.6 20:56:53 10° NNW 21:00:44 47° W 21:04:25 11° S
Cosmos 2082 Rocket 3.8 21:01:01 14° SE 21:03:18 17° E 21:06:50 10° ENE
NOSS 2-1 (E) 4.4 21:01:44 10° NW 21:06:20 61° SW 21:11:18 17° SSE
ERS-1 Rocket 3.3 21:03:41 12° S 21:08:16 61° WSW 21:13:16 10° NNW
RESURS DK-1 2.5 21:06:14 10° NNW 21:10:23 68° ENE 21:13:07 20° SE
Cosmos 2058 Rocket 4.5 21:11:26 10° NNE 21:15:11 27° ENE 21:17:48 16° ESE
CZ-2C R/B 3.8 21:11:52 10° NNE 21:16:30 78° WNW 21:21:01 10° SSW
ARIANE 5 R/B 2.8 21:18:10 18° S 21:21:28 72° WSW 21:25:55 10° NNW
Cosmos 1741 Rocket 4.1 21:16:46 10° NNW 21:22:07 82° WSW 21:25:51 20° SSE
Cosmos 968 Rocket 4.4 21:18:46 10° N 21:23:37 38° ENE 21:27:23 16° ESE
Cosmos 1825 4.4 21:24:12 11° E 21:25:12 12° E 21:26:30 10° ENE
Cosmos 2344 4.3 21:19:21 10° NW 21:28:03 77° NE 21:38:57 14° SE
SL-8 R/B 3.6 21:24:27 10° W 21:29:15 75° SSW 21:33:27 14° ESE
GP-B 3.7 21:27:24 10° NNE 21:31:38 41° E 21:33:53 23° SE
Cosmos 1455 4.3 21:28:47 10° NW 21:31:43 21° W 21:34:39 10° SW
Cosmos 2074 Rocket 4.5 21:28:40 10° NNW 21:34:48 57° W 21:40:08 14° SSW
ADEOS Rocket 4.4 21:33:32 13° ESE 21:39:17 39° ENE 21:46:15 10° N
ASTEX 1 3.6 21:34:48 10° NNE 21:39:47 61° E 21:42:46 24° SSE
COSMOS 2406 3.6 21:37:53 21° S 21:41:26 45° ESE 21:46:53 10° NE
USA 267 3.2 21:37:31 10° ENE 21:44:06 75° SE 21:50:38 10° SW
Cosmos 2369 4.0 21:38:34 10° NNW 21:44:17 62° ENE 21:48:09 21° SE
SL-16 R/B 4.2 21:40:48 10° N 21:45:10 22° NE 21:49:30 10° E
Cosmos 2228 3.8 21:45:22 10° NNW 21:49:24 44° W 21:52:05 19° SSW
Cosmos 962 Rocket 4.5 21:45:33 10° N 21:51:49 81° E 21:55:52 23° SSE
Nadezhda 1 Rocket 4.1 21:47:09 14° SSW 21:52:29 73° W 21:58:34 10° N
Cosmos 1980 Rocket 2.5 21:47:13 10° NNW 21:52:54 64° ENE 21:56:37 22° SE
Cosmos 1606 Rocket 3.8 21:50:15 10° NNW 21:54:32 61° W 21:56:56 25° SSW
Cosmos 1697 Rocket 2.8 21:49:50 10° NNW 21:55:27 70° WSW 21:58:44 25° SSE
Cosmos 1892 3.2 21:55:58 32° SE 21:57:10 44° E 22:00:46 10° NNE
SJ 16-02 3.9 21:55:55 10° NNE 21:58:09 13° NE 22:00:23 10° E
Cosmos 2084 Rocket 3.4 21:56:43 10° NW 22:00:36 67° NE 22:02:43 26° ESE
Meteor 1-11 4.3 21:57:30 24° S 22:00:50 65° E 22:06:23 10° NNE
USA 276 2.2 22:02:00 10° W 22:05:00 70° N 22:08:00 10° ENE
Cosmos 1328 4.2 22:04:04 22° SSW 22:06:30 59° WNW 22:10:29 10° N
Cosmos 1331 Rocket 4.3 22:04:06 12° SSW 22:08:57 69° WNW 22:14:16 10° NNE
X-37B 2.2 22:11:52 10° WSW 22:12:57 19° WSW 22:12:57 19° WSW
Cosmos 1408 2.3 22:15:25 41° S 22:16:30 88° W 22:19:58 10° N
Lacrosse 5 3.7 22:15:24 10° W 22:18:38 17° WSW 22:20:08 15° SW
USA 234 3.2 22:14:25 21° SE 22:19:05 72° SW 22:25:40 10° WNW
Cosmos 1726 Rocket 4.3 22:15:09 10° NNW 22:19:15 43° W 22:21:23 24° SSW
Terra 4.0 22:17:28 10° SW 22:20:34 17° W 22:23:41 10° NW
ATLAS 2AS CENTAUR R/B 4.4 22:16:54 10° WNW 22:21:30 19° WSW 22:25:25 12° SW
FALCON 9 DEB 4.4 22:19:13 10° WNW 22:22:19 39° N 22:25:26 10° E
Cosmos 1833 Rocket 3.2 22:18:20 10° SW 22:23:51 58° WNW 22:29:25 10° NNE
Cosmos 2322 Rocket 3.8 22:19:41 10° NNW 22:24:34 28° NE 22:29:26 10° ESE
Cosmos 1867 3.6 22:22:35 10° NW 22:28:06 83° NE 22:31:17 26° SE
Cosmos 2278 3.8 22:23:17 10° NNW 22:29:01 72° ENE 22:32:24 25° SE
ATLAS 5 CENTAUR R/B 2.7 22:30:25 22° ESE 22:30:25 22° ESE 22:33:14 10° ENE
SL-8 Rocket 4.0 22:23:56 10° NNW 22:30:12 76° W 22:33:46 27° S
Cosmos 1812 Rocket 4.3 22:28:12 10° N 22:32:31 45° ENE 22:34:25 28° SE
ALOS 2 2.6 22:32:45 35° SSE 22:34:34 79° ENE 22:38:59 10° NNW
Cosmos 1302 Rocket 4.0 22:31:56 23° SSW 22:35:15 81° WNW 22:40:29 10° NNE
Cosmos 2218 Rocket 4.1 22:35:52 10° NNW 22:42:17 74° W 22:45:53 28° S
Cosmos 2366 rocket 4.1 22:39:44 10° NNW 22:46:02 70° W 22:49:35 28° S
Aureole 1 Rocket 4.5 22:39:34 10° NNW 22:46:26 76° ENE 22:51:53 23° SSE
Cosmos 2082 Rocket 2.2 22:42:49 22° SSW 22:46:37 85° WNW 22:52:22 10° NNE
Cosmos 1602 Rocket 3.8 22:45:32 37° SSE 22:46:56 56° E 22:51:10 10° NNE
H-2A R/B 3.4 22:45:21 10° NNE 22:49:35 89° ESE 22:51:09 38° SSW
Cosmos 2058 Rocket 4.2 22:49:14 10° NNW 22:53:13 34° W 22:55:04 24° SW
Spot 4 4.5 22:52:42 29° SSW 22:54:42 45° W 22:59:18 10° NNW
Cosmos 1825 2.4 22:58:50 38° SW 23:00:00 59° WNW 23:03:43 10° N
Cosmos 2360 Rocket 3.6 22:59:02 10° NNW 23:04:13 35° NE 23:09:22 10° ESE
ERS-2 2.1 23:01:37 10° NNE 23:05:12 65° ESE 23:05:53 51° SSE
Cosmos 968 Rocket 4.5 23:00:42 10° NW 23:05:21 34° WSW 23:07:22 25° SW
Cosmos-2242 2.9 23:02:34 10° N 23:06:50 78° E 23:08:16 41° SSE
Cosmos 1626 Rocket 4.0 23:10:22 31° SW 23:12:11 54° WNW 23:16:27 10° N
Cosmos 1869 4.3 23:12:35 10° NNW 23:16:07 34° W 23:17:08 29° SW
Cosmos 1606 2.8 23:13:23 10° N 23:17:14 71° E 23:18:18 44° SSE
Cosmos 2058 3.5 23:16:21 34° SE 23:17:36 46° E 23:21:37 10° NNE
BREEZE-M DEB (TANK) 4.1 23:14:28 10° WNW 23:18:11 84° SSW 23:34:27 10° ESE
Cosmos 1934 Rocket 4.3 23:12:45 10° N 23:18:45 57° ENE 23:22:23 24° SSE
Cosmos 1825 Rocket 3.7 23:22:58 38° SSE 23:24:22 60° E 23:28:38 10° NNE
ADEOS Rocket 3.8 23:20:28 27° SSW 23:24:28 55° W 23:31:58 10° NNW
Cosmos 1633 2.8 23:25:15 44° SW 23:26:01 56° WNW 23:29:27 10° N
USA 267 4.0 23:20:39 10° NE 23:26:59 54° NNW 23:33:18 10° W
CRYOSAT 2 4.5 23:25:28 33° SSE 23:27:39 69° E 23:32:33 10° N
SL-16 R/B 2.1 23:24:20 10° NNW 23:30:02 87° WSW 23:33:07 28° SSE
Cosmos 1980 Rocket 3.6 23:32:00 10° NW 23:36:25 24° WSW 23:38:21 20° SW
SJ 16-02 1.3 23:32:58 10° NNW 23:37:27 86° ENE 23:39:13 36° SSE
USA 276 2.1 23:37:49 10° WNW 23:40:49 74° N 23:43:50 10° E
Meteor 2-2 Rocket 4.4 23:36:34 10° NNW 23:42:36 87° E 23:45:55 29° SSE
Cosmos 1821 Rocket 4.3 23:36:41 10° NNW 23:42:46 53° W 23:45:54 28° SSW
Cosmos 2219 Rocket 3.8 23:39:30 10° NNW 23:44:36 32° NE 23:49:40 10° ESE
Cosmos 1340 Rocket 2.9 23:48:44 42° SSE 23:49:51 64° E 23:53:46 10° NNE
CZ-2D R/B 4.0 23:46:43 10° NE 23:50:23 19° E 23:53:35 12° SE
